Year,Month,Day,Hour,Minute,Value (Times are PST for temperature in C)
2014,08,22,00,00,16.70
2014,08,22,00,01,16.70
2014,08,22,00,02,16.60
2014,08,22,00,03,16.60
2014,08,22,00,04,16.60
2014,08,22,00,05,16.50
2014,08,22,00,06,16.50
2014,08,22,00,07,16.50
2014,08,22,00,08,16.50
2014,08,22,00,09,16.60
2014,08,22,00,10,16.60
2014,08,22,00,11,16.60
2014,08,22,00,12,16.60
2014,08,22,00,13,16.70
2014,08,22,00,14,16.70
2014,08,22,00,15,16.60
2014,08,22,00,16,16.60
2014,08,22,00,17,16.60
2014,08,22,00,18,16.60
2014,08,22,00,19,16.60
2014,08,22,00,20,16.50
2014,08,22,00,21,16.50
2014,08,22,00,22,16.40
2014,08,22,00,23,16.40
2014,08,22,00,24,16.40
2014,08,22,00,25,16.40
2014,08,22,00,26,16.40
2014,08,22,00,27,16.40
2014,08,22,00,28,16.40
2014,08,22,00,29,16.30
2014,08,22,00,30,16.30
2014,08,22,00,31,16.30
2014,08,22,00,32,16.20
2014,08,22,00,33,16.20
2014,08,22,00,34,16.10
2014,08,22,00,35,16.10
2014,08,22,00,36,16.00
2014,08,22,00,37,15.90
2014,08,22,00,38,15.80
2014,08,22,00,39,15.70
2014,08,22,00,40,15.60
2014,08,22,00,41,15.50
2014,08,22,00,42,15.50
2014,08,22,00,43,15.40
2014,08,22,00,44,15.40
2014,08,22,00,45,15.40
2014,08,22,00,46,15.50
2014,08,22,00,47,15.50
2014,08,22,00,48,15.60
2014,08,22,00,49,15.70
2014,08,22,00,50,15.80
2014,08,22,00,51,15.90
2014,08,22,00,52,16.00
2014,08,22,00,53,16.00
2014,08,22,00,54,16.10
2014,08,22,00,55,16.10
2014,08,22,00,56,16.20
2014,08,22,00,57,16.20
2014,08,22,00,58,16.20
2014,08,22,00,59,16.30
2014,08,22,01,00,16.30
2014,08,22,01,01,16.40
2014,08,22,01,02,16.40
2014,08,22,01,03,16.40
2014,08,22,01,04,16.40
2014,08,22,01,05,16.40
2014,08,22,01,06,16.40
2014,08,22,01,07,16.50
2014,08,22,01,08,16.50
2014,08,22,01,09,16.50
2014,08,22,01,10,16.50
2014,08,22,01,11,16.50
2014,08,22,01,12,16.50
2014,08,22,01,13,16.50
2014,08,22,01,14,16.50
2014,08,22,01,15,16.50
2014,08,22,01,16,16.50
2014,08,22,01,17,16.50
2014,08,22,01,18,16.40
2014,08,22,01,19,16.40
2014,08,22,01,20,16.40
2014,08,22,01,21,16.40
2014,08,22,01,22,16.30
2014,08,22,01,23,16.30
2014,08,22,01,24,16.20
2014,08,22,01,25,16.20
2014,08,22,01,26,16.20
2014,08,22,01,27,16.10
2014,08,22,01,28,16.10
2014,08,22,01,29,16.00
2014,08,22,01,30,16.00
2014,08,22,01,31,15.90
2014,08,22,01,32,15.90
2014,08,22,01,33,15.80
2014,08,22,01,34,15.80
2014,08,22,01,35,15.80
2014,08,22,01,36,15.70
2014,08,22,01,37,15.70
2014,08,22,01,38,15.70
2014,08,22,01,39,15.70
2014,08,22,01,40,15.60
2014,08,22,01,41,15.60
2014,08,22,01,42,15.60
2014,08,22,01,43,15.60
2014,08,22,01,44,15.60
2014,08,22,01,45,15.60
2014,08,22,01,46,15.60
2014,08,22,01,47,15.60
2014,08,22,01,48,15.60
2014,08,22,01,49,15.50
2014,08,22,01,50,15.50
2014,08,22,01,51,15.50
2014,08,22,01,52,15.50
2014,08,22,01,53,15.40
2014,08,22,01,54,15.40
2014,08,22,01,55,15.40
2014,08,22,01,56,15.40
2014,08,22,01,57,15.40
2014,08,22,01,58,15.40
2014,08,22,01,59,15.40
2014,08,22,02,00,15.50
2014,08,22,02,01,15.50
2014,08,22,02,02,15.50
2014,08,22,02,03,15.60
2014,08,22,02,04,15.60
2014,08,22,02,05,15.70
2014,08,22,02,06,15.70
2014,08,22,02,07,15.70
2014,08,22,02,08,15.70
2014,08,22,02,09,15.70
2014,08,22,02,10,15.70
2014,08,22,02,11,15.70
2014,08,22,02,12,15.70
2014,08,22,02,13,15.70
2014,08,22,02,14,15.70
2014,08,22,02,15,15.70
2014,08,22,02,16,15.70
2014,08,22,02,17,15.70
2014,08,22,02,18,15.70
2014,08,22,02,19,15.60
2014,08,22,02,20,15.60
2014,08,22,02,21,15.60
2014,08,22,02,22,15.60
2014,08,22,02,23,15.60
2014,08,22,02,24,15.60
2014,08,22,02,25,15.60
2014,08,22,02,26,15.60
2014,08,22,02,27,15.60
2014,08,22,02,28,15.50
2014,08,22,02,29,15.50
2014,08,22,02,30,15.50
2014,08,22,02,31,15.50
2014,08,22,02,32,15.50
2014,08,22,02,33,15.40
2014,08,22,02,34,15.40
2014,08,22,02,35,15.40
2014,08,22,02,36,15.40
2014,08,22,02,37,15.40
2014,08,22,02,38,15.40
2014,08,22,02,39,15.30
2014,08,22,02,40,15.30
2014,08,22,02,41,15.30
2014,08,22,02,42,15.30
2014,08,22,02,43,15.30
2014,08,22,02,44,15.20
2014,08,22,02,45,15.20
2014,08,22,02,46,15.20
2014,08,22,02,47,15.20
2014,08,22,02,48,15.20
2014,08,22,02,49,15.20
2014,08,22,02,50,15.20
2014,08,22,02,51,15.20
2014,08,22,02,52,15.10
2014,08,22,02,53,15.10
2014,08,22,02,54,15.10
2014,08,22,02,55,15.10
2014,08,22,02,56,15.00
2014,08,22,02,57,15.00
2014,08,22,02,58,15.00
2014,08,22,02,59,14.90
2014,08,22,03,00,14.90
2014,08,22,03,01,14.90
2014,08,22,03,02,14.90
2014,08,22,03,03,15.00
2014,08,22,03,04,15.00
2014,08,22,03,05,15.00
2014,08,22,03,06,15.10
2014,08,22,03,07,15.10
2014,08,22,03,08,15.10
2014,08,22,03,09,15.10
2014,08,22,03,10,15.20
2014,08,22,03,11,15.20
2014,08,22,03,12,15.20
2014,08,22,03,13,15.20
2014,08,22,03,14,15.10
2014,08,22,03,15,15.10
2014,08,22,03,16,15.10
2014,08,22,03,17,15.10
2014,08,22,03,18,15.10
2014,08,22,03,19,15.10
2014,08,22,03,20,15.10
2014,08,22,03,21,15.00
2014,08,22,03,22,15.00
2014,08,22,03,23,14.90
2014,08,22,03,24,14.90
2014,08,22,03,25,14.90
2014,08,22,03,26,14.90
2014,08,22,03,27,14.90
2014,08,22,03,28,14.90
2014,08,22,03,29,14.90
2014,08,22,03,30,14.90
2014,08,22,03,31,14.90
2014,08,22,03,32,14.90
2014,08,22,03,33,15.00
2014,08,22,03,34,15.00
2014,08,22,03,35,15.00
2014,08,22,03,36,15.00
2014,08,22,03,37,15.10
2014,08,22,03,38,15.10
2014,08,22,03,39,15.10
2014,08,22,03,40,15.10
2014,08,22,03,41,15.10
2014,08,22,03,42,15.10
2014,08,22,03,43,15.10
2014,08,22,03,44,15.10
2014,08,22,03,45,15.10
2014,08,22,03,46,15.10
2014,08,22,03,47,15.20
2014,08,22,03,48,15.20
2014,08,22,03,49,15.20
2014,08,22,03,50,15.20
2014,08,22,03,51,15.20
2014,08,22,03,52,15.20
2014,08,22,03,53,15.20
2014,08,22,03,54,15.20
2014,08,22,03,55,15.20
2014,08,22,03,56,15.30
2014,08,22,03,57,15.30
2014,08,22,03,58,15.20
2014,08,22,03,59,15.20
2014,08,22,04,00,15.20
2014,08,22,04,01,15.10
2014,08,22,04,02,15.10
2014,08,22,04,03,15.00
2014,08,22,04,04,15.00
2014,08,22,04,05,14.90
2014,08,22,04,06,14.90
2014,08,22,04,07,14.80
2014,08,22,04,08,14.80
2014,08,22,04,09,14.80
2014,08,22,04,10,14.80
2014,08,22,04,11,14.80
2014,08,22,04,12,14.80
2014,08,22,04,13,14.80
2014,08,22,04,14,14.80
2014,08,22,04,15,14.90
2014,08,22,04,16,14.90
2014,08,22,04,17,14.90
2014,08,22,04,18,14.90
2014,08,22,04,19,14.90
2014,08,22,04,20,14.90
2014,08,22,04,21,14.90
2014,08,22,04,22,14.90
2014,08,22,04,23,14.90
2014,08,22,04,24,14.90
2014,08,22,04,25,14.90
2014,08,22,04,26,14.90
2014,08,22,04,27,14.90
2014,08,22,04,28,14.90
2014,08,22,04,29,14.90
2014,08,22,04,30,14.90
2014,08,22,04,31,15.00
2014,08,22,04,32,15.00
2014,08,22,04,33,15.00
2014,08,22,04,34,15.00
2014,08,22,04,35,15.00
2014,08,22,04,36,14.90
2014,08,22,04,37,14.90
2014,08,22,04,38,14.90
2014,08,22,04,39,14.90
2014,08,22,04,40,14.90
2014,08,22,04,41,14.90
2014,08,22,04,42,14.90
2014,08,22,04,43,14.90
2014,08,22,04,44,14.90
2014,08,22,04,45,14.90
2014,08,22,04,46,14.90
2014,08,22,04,47,14.80
2014,08,22,04,48,14.80
2014,08,22,04,49,14.80
2014,08,22,04,50,14.80
2014,08,22,04,51,14.70
2014,08,22,04,52,14.70
2014,08,22,04,53,14.70
2014,08,22,04,54,14.60
2014,08,22,04,55,14.60
2014,08,22,04,56,14.60
2014,08,22,04,57,14.60
2014,08,22,04,58,14.50
2014,08,22,04,59,14.50
2014,08,22,05,00,14.40
2014,08,22,05,01,14.40
2014,08,22,05,02,14.40
2014,08,22,05,03,14.30
2014,08,22,05,04,14.30
2014,08,22,05,05,14.30
2014,08,22,05,06,14.20
2014,08,22,05,07,14.20
2014,08,22,05,08,14.20
2014,08,22,05,09,14.20
2014,08,22,05,10,14.20
2014,08,22,05,11,14.20
2014,08,22,05,12,14.20
2014,08,22,05,13,14.20
2014,08,22,05,14,14.20
2014,08,22,05,15,14.20
2014,08,22,05,16,14.20
2014,08,22,05,17,14.20
2014,08,22,05,18,14.20
2014,08,22,05,19,14.20
2014,08,22,05,20,14.20
2014,08,22,05,21,14.20
2014,08,22,05,22,14.20
2014,08,22,05,23,14.20
2014,08,22,05,24,14.20
2014,08,22,05,25,14.20
2014,08,22,05,26,14.20
2014,08,22,05,27,14.20
2014,08,22,05,28,14.20
2014,08,22,05,29,14.20
2014,08,22,05,30,14.20
2014,08,22,05,31,14.20
2014,08,22,05,32,14.20
2014,08,22,05,33,14.20
2014,08,22,05,34,14.30
2014,08,22,05,35,14.30
2014,08,22,05,36,14.30
2014,08,22,05,37,14.30
2014,08,22,05,38,14.30
2014,08,22,05,39,14.30
2014,08,22,05,40,14.30
2014,08,22,05,41,14.30
2014,08,22,05,42,14.30
2014,08,22,05,43,14.30
2014,08,22,05,44,14.30
2014,08,22,05,45,14.30
2014,08,22,05,46,14.30
2014,08,22,05,47,14.30
2014,08,22,05,48,14.30
2014,08,22,05,49,14.30
2014,08,22,05,50,14.30
2014,08,22,05,51,14.30
2014,08,22,05,52,14.30
2014,08,22,05,53,14.30
2014,08,22,05,54,14.30
2014,08,22,05,55,14.30
2014,08,22,05,56,14.30
2014,08,22,05,57,14.30
2014,08,22,05,58,14.30
2014,08,22,05,59,14.20
2014,08,22,06,00,14.20
2014,08,22,06,01,14.20
2014,08,22,06,02,14.20
2014,08,22,06,03,14.20
2014,08,22,06,04,14.10
2014,08,22,06,05,14.10
2014,08,22,06,06,14.10
2014,08,22,06,07,14.10
2014,08,22,06,08,14.10
2014,08,22,06,09,14.10
2014,08,22,06,10,14.10
2014,08,22,06,11,14.10
2014,08,22,06,12,14.00
2014,08,22,06,13,14.00
2014,08,22,06,14,14.00
2014,08,22,06,15,14.00
2014,08,22,06,16,13.90
2014,08,22,06,17,13.90
2014,08,22,06,18,13.90
2014,08,22,06,19,13.90
2014,08,22,06,20,13.90
2014,08,22,06,21,13.90
2014,08,22,06,22,13.80
2014,08,22,06,23,13.80
2014,08,22,06,24,13.80
2014,08,22,06,25,13.80
2014,08,22,06,26,13.80
2014,08,22,06,27,13.80
2014,08,22,06,28,13.80
2014,08,22,06,29,13.80
2014,08,22,06,30,13.90
2014,08,22,06,31,13.90
2014,08,22,06,32,13.90
2014,08,22,06,33,13.90
2014,08,22,06,34,13.90
2014,08,22,06,35,13.90
2014,08,22,06,36,13.90
2014,08,22,06,37,13.90
2014,08,22,06,38,13.90
2014,08,22,06,39,13.90
2014,08,22,06,40,13.90
2014,08,22,06,41,14.00
2014,08,22,06,42,14.00
2014,08,22,06,43,14.10
2014,08,22,06,44,14.10
2014,08,22,06,45,14.10
2014,08,22,06,46,14.10
2014,08,22,06,47,14.10
2014,08,22,06,48,14.20
2014,08,22,06,49,14.20
2014,08,22,06,50,14.20
2014,08,22,06,51,14.30
2014,08,22,06,52,14.30
2014,08,22,06,53,14.30
2014,08,22,06,54,14.30
2014,08,22,06,55,14.30
2014,08,22,06,56,14.30
2014,08,22,06,57,14.30
2014,08,22,06,58,14.30
2014,08,22,06,59,14.30
2014,08,22,07,00,14.30
2014,08,22,07,01,14.30
2014,08,22,07,02,14.30
2014,08,22,07,03,14.30
2014,08,22,07,04,14.30
2014,08,22,07,05,14.30
2014,08,22,07,06,14.30
2014,08,22,07,07,14.30
2014,08,22,07,08,14.30
2014,08,22,07,09,14.30
2014,08,22,07,10,14.30
2014,08,22,07,11,14.30
2014,08,22,07,12,14.30
2014,08,22,07,13,14.30
2014,08,22,07,14,14.30
2014,08,22,07,15,14.30
2014,08,22,07,16,14.30
2014,08,22,07,17,14.30
2014,08,22,07,18,14.30
2014,08,22,07,19,14.30
2014,08,22,07,20,14.30
2014,08,22,07,21,14.20
2014,08,22,07,22,14.20
2014,08,22,07,23,14.20
2014,08,22,07,24,14.20
2014,08,22,07,25,14.20
2014,08,22,07,26,14.20
2014,08,22,07,27,14.20
2014,08,22,07,28,14.30
2014,08,22,07,29,14.30
2014,08,22,07,30,14.30
2014,08,22,07,31,14.30
2014,08,22,07,32,14.30
2014,08,22,07,33,14.30
2014,08,22,07,34,14.30
2014,08,22,07,35,14.40
2014,08,22,07,36,14.40
2014,08,22,07,37,14.40
2014,08,22,07,38,14.40
2014,08,22,07,39,14.40
2014,08,22,07,40,14.40
2014,08,22,07,41,14.40
2014,08,22,07,42,14.40
2014,08,22,07,43,14.50
2014,08,22,07,44,14.50
2014,08,22,07,45,14.50
2014,08,22,07,46,14.50
2014,08,22,07,47,14.60
2014,08,22,07,48,14.60
2014,08,22,07,49,14.60
2014,08,22,07,50,14.70
2014,08,22,07,51,14.70
2014,08,22,07,52,14.70
2014,08,22,07,53,14.80
2014,08,22,07,54,14.80
2014,08,22,07,55,14.80
2014,08,22,07,56,14.80
2014,08,22,07,57,14.90
2014,08,22,07,58,14.90
2014,08,22,07,59,15.00
2014,08,22,08,00,15.00
2014,08,22,08,01,15.10
2014,08,22,08,02,15.10
2014,08,22,08,03,15.20
2014,08,22,08,04,15.20
2014,08,22,08,05,15.30
2014,08,22,08,06,15.30
2014,08,22,08,07,15.40
2014,08,22,08,08,15.40
2014,08,22,08,09,15.50
2014,08,22,08,10,15.60
2014,08,22,08,11,15.60
2014,08,22,08,12,15.70
2014,08,22,08,13,15.70
2014,08,22,08,14,15.80
2014,08,22,08,15,15.80
2014,08,22,08,16,15.90
2014,08,22,08,17,15.90
2014,08,22,08,18,16.00
2014,08,22,08,19,16.00
2014,08,22,08,20,16.00
2014,08,22,08,21,16.10
2014,08,22,08,22,16.10
2014,08,22,08,23,16.10
2014,08,22,08,24,16.10
2014,08,22,08,25,16.10
2014,08,22,08,26,16.20
2014,08,22,08,27,16.20
2014,08,22,08,28,16.20
2014,08,22,08,29,16.20
2014,08,22,08,30,16.30
2014,08,22,08,31,16.30
2014,08,22,08,32,16.30
2014,08,22,08,33,16.40
2014,08,22,08,34,16.40
2014,08,22,08,35,16.50
2014,08,22,08,36,16.50
2014,08,22,08,37,16.60
2014,08,22,08,38,16.60
2014,08,22,08,39,16.60
2014,08,22,08,40,16.70
2014,08,22,08,41,16.70
2014,08,22,08,42,16.70
2014,08,22,08,43,16.70
2014,08,22,08,44,16.70
2014,08,22,08,45,16.70
2014,08,22,08,46,16.70
2014,08,22,08,47,16.70
2014,08,22,08,48,16.80
2014,08,22,08,49,16.80
2014,08,22,08,50,16.80
2014,08,22,08,51,16.80
2014,08,22,08,52,16.80
2014,08,22,08,53,16.90
2014,08,22,08,54,16.90
2014,08,22,08,55,16.90
2014,08,22,08,56,16.90
2014,08,22,08,57,17.00
2014,08,22,08,58,17.00
2014,08,22,08,59,17.00
2014,08,22,09,00,17.10
2014,08,22,09,01,17.10
2014,08,22,09,02,17.10
2014,08,22,09,03,17.20
2014,08,22,09,04,17.20
2014,08,22,09,05,17.20
2014,08,22,09,06,17.30
2014,08,22,09,07,17.30
2014,08,22,09,08,17.30
2014,08,22,09,09,17.40
2014,08,22,09,10,17.40
2014,08,22,09,11,17.50
2014,08,22,09,12,17.60
2014,08,22,09,13,17.60
2014,08,22,09,14,17.70
2014,08,22,09,15,17.70
2014,08,22,09,16,17.80
2014,08,22,09,17,17.80
2014,08,22,09,18,17.90
2014,08,22,09,19,17.90
2014,08,22,09,20,17.90
2014,08,22,09,21,18.00
2014,08,22,09,22,18.00
2014,08,22,09,23,18.00
2014,08,22,09,24,18.10
2014,08,22,09,25,18.10
2014,08,22,09,26,18.10
2014,08,22,09,27,18.20
2014,08,22,09,28,18.20
2014,08,22,09,29,18.20
2014,08,22,09,30,18.20
2014,08,22,09,31,18.30
2014,08,22,09,32,18.30
2014,08,22,09,33,18.30
2014,08,22,09,34,18.40
2014,08,22,09,35,18.50
2014,08,22,09,36,18.50
2014,08,22,09,37,18.60
2014,08,22,09,38,18.60
2014,08,22,09,39,18.70
2014,08,22,09,40,18.70
2014,08,22,09,41,18.80
2014,08,22,09,42,18.80
2014,08,22,09,43,18.80
2014,08,22,09,44,18.80
2014,08,22,09,45,18.90
2014,08,22,09,46,18.90
2014,08,22,09,47,18.90
2014,08,22,09,48,18.90
2014,08,22,09,49,18.90
2014,08,22,09,50,18.90
2014,08,22,09,51,19.00
2014,08,22,09,52,19.00
2014,08,22,09,53,19.10
2014,08,22,09,54,19.20
2014,08,22,09,55,19.20
2014,08,22,09,56,19.20
2014,08,22,09,57,19.20
2014,08,22,09,58,19.20
2014,08,22,09,59,19.30
2014,08,22,10,00,19.30
2014,08,22,10,01,19.30
2014,08,22,10,02,19.30
2014,08,22,10,03,19.30
2014,08,22,10,04,19.40
2014,08,22,10,05,19.40
2014,08,22,10,06,19.40
2014,08,22,10,07,19.50
2014,08,22,10,08,19.50
2014,08,22,10,09,19.60
2014,08,22,10,10,19.70
2014,08,22,10,11,19.70
2014,08,22,10,12,19.80
2014,08,22,10,13,19.80
2014,08,22,10,14,19.90
2014,08,22,10,15,20.00
2014,08,22,10,16,20.10
2014,08,22,10,17,20.20
2014,08,22,10,18,20.20
2014,08,22,10,19,20.20
2014,08,22,10,20,20.20
2014,08,22,10,21,20.30
2014,08,22,10,22,20.30
2014,08,22,10,23,20.40
2014,08,22,10,24,20.40
2014,08,22,10,25,20.50
2014,08,22,10,26,20.60
2014,08,22,10,27,20.60
2014,08,22,10,28,20.60
2014,08,22,10,29,20.50
2014,08,22,10,30,20.50
2014,08,22,10,31,20.40
2014,08,22,10,32,20.40
2014,08,22,10,33,20.40
2014,08,22,10,34,20.40
2014,08,22,10,35,20.50
2014,08,22,10,36,20.60
2014,08,22,10,37,20.60
2014,08,22,10,38,20.60
2014,08,22,10,39,20.70
2014,08,22,10,40,20.70
2014,08,22,10,41,20.80
2014,08,22,10,42,20.80
2014,08,22,10,43,20.80
2014,08,22,10,44,20.90
2014,08,22,10,45,21.00
2014,08,22,10,46,21.00
2014,08,22,10,47,21.10
2014,08,22,10,48,21.20
2014,08,22,10,49,21.20
2014,08,22,10,50,21.30
2014,08,22,10,51,21.30
2014,08,22,10,52,21.30
2014,08,22,10,53,21.30
2014,08,22,10,54,21.30
2014,08,22,10,55,21.40
2014,08,22,10,56,21.50
2014,08,22,10,57,21.50
2014,08,22,10,58,21.60
2014,08,22,10,59,21.70
2014,08,22,11,00,21.60
2014,08,22,11,01,21.60
2014,08,22,11,02,21.60
2014,08,22,11,03,21.60
2014,08,22,11,04,21.60
2014,08,22,11,05,21.60
2014,08,22,11,06,21.70
2014,08,22,11,07,21.80
2014,08,22,11,08,21.90
2014,08,22,11,09,21.90
2014,08,22,11,10,22.00
2014,08,22,11,11,22.10
2014,08,22,11,12,22.10
2014,08,22,11,13,22.10
2014,08,22,11,14,22.10
2014,08,22,11,15,22.10
2014,08,22,11,16,22.10
2014,08,22,11,17,22.10
2014,08,22,11,18,22.20
2014,08,22,11,19,22.30
2014,08,22,11,20,22.30
2014,08,22,11,21,22.40
2014,08,22,11,22,22.40
2014,08,22,11,23,22.50
2014,08,22,11,24,22.50
2014,08,22,11,25,22.40
2014,08,22,11,26,22.30
2014,08,22,11,27,22.30
2014,08,22,11,28,22.20
2014,08,22,11,29,22.10
2014,08,22,11,30,22.10
2014,08,22,11,31,21.90
2014,08,22,11,32,21.90
2014,08,22,11,33,21.70
2014,08,22,11,34,21.60
2014,08,22,11,35,21.60
2014,08,22,11,36,21.60
2014,08,22,11,37,21.60
2014,08,22,11,38,21.60
2014,08,22,11,39,21.60
2014,08,22,11,40,21.60
2014,08,22,11,41,21.70
2014,08,22,11,42,21.70
2014,08,22,11,43,21.70
2014,08,22,11,44,21.80
2014,08,22,11,45,21.90
2014,08,22,11,46,21.90
2014,08,22,11,47,22.00
2014,08,22,11,48,22.00
2014,08,22,11,49,22.10
2014,08,22,11,50,22.20
2014,08,22,11,51,22.30
2014,08,22,11,52,22.30
2014,08,22,11,53,22.40
2014,08,22,11,54,22.40
2014,08,22,11,55,22.40
2014,08,22,11,56,22.50
2014,08,22,11,57,22.50
2014,08,22,11,58,22.60
2014,08,22,11,59,22.60
2014,08,22,12,00,22.60
2014,08,22,12,01,22.60
2014,08,22,12,02,22.60
2014,08,22,12,03,22.70
2014,08,22,12,04,22.70
2014,08,22,12,05,22.80
2014,08,22,12,06,22.90
2014,08,22,12,07,23.00
2014,08,22,12,08,23.00
2014,08,22,12,09,23.10
2014,08,22,12,10,23.10
2014,08,22,12,11,23.20
2014,08,22,12,12,23.20
2014,08,22,12,13,23.20
2014,08,22,12,14,23.30
2014,08,22,12,15,23.30
2014,08,22,12,16,23.30
2014,08,22,12,17,23.30
2014,08,22,12,18,23.40
2014,08,22,12,19,23.40
2014,08,22,12,20,23.40
2014,08,22,12,21,23.40
2014,08,22,12,22,23.40
2014,08,22,12,23,23.50
2014,08,22,12,24,23.50
2014,08,22,12,25,23.60
2014,08,22,12,26,23.60
2014,08,22,12,27,23.70
2014,08,22,12,28,23.70
2014,08,22,12,29,23.70
2014,08,22,12,30,23.80
2014,08,22,12,31,23.80
2014,08,22,12,32,23.90
2014,08,22,12,33,23.90
2014,08,22,12,34,23.90
2014,08,22,12,35,23.90
2014,08,22,12,36,24.00
2014,08,22,12,37,24.10
2014,08,22,12,38,24.10
2014,08,22,12,39,24.10
2014,08,22,12,40,24.10
2014,08,22,12,41,24.20
2014,08,22,12,42,24.20
2014,08,22,12,43,24.30
2014,08,22,12,44,24.30
2014,08,22,12,45,24.40
2014,08,22,12,46,24.40
2014,08,22,12,47,24.40
2014,08,22,12,48,24.50
2014,08,22,12,49,24.40
2014,08,22,12,50,24.50
2014,08,22,12,51,24.50
2014,08,22,12,52,24.60
2014,08,22,12,53,24.60
2014,08,22,12,54,24.70
2014,08,22,12,55,24.70
2014,08,22,12,56,24.70
2014,08,22,12,57,24.80
2014,08,22,12,58,24.80
2014,08,22,12,59,24.80
2014,08,22,13,00,24.70
2014,08,22,13,01,24.70
2014,08,22,13,02,24.80
2014,08,22,13,03,24.80
2014,08,22,13,04,24.80
2014,08,22,13,05,24.80
2014,08,22,13,06,24.80
2014,08,22,13,07,24.80
2014,08,22,13,08,24.80
2014,08,22,13,09,24.80
2014,08,22,13,10,24.90
2014,08,22,13,11,24.90
2014,08,22,13,12,25.00
2014,08,22,13,13,25.10
2014,08,22,13,14,25.10
2014,08,22,13,15,25.00
2014,08,22,13,16,25.00
2014,08,22,13,17,25.00
2014,08,22,13,18,25.00
2014,08,22,13,19,25.00
2014,08,22,13,20,24.90
2014,08,22,13,21,24.80
2014,08,22,13,22,24.70
2014,08,22,13,23,24.50
2014,08,22,13,24,24.40
2014,08,22,13,25,24.30
2014,08,22,13,26,24.30
2014,08,22,13,27,24.30
2014,08,22,13,28,24.30
2014,08,22,13,29,24.40
2014,08,22,13,30,24.40
2014,08,22,13,31,24.40
2014,08,22,13,32,24.20
2014,08,22,13,33,24.00
2014,08,22,13,34,23.70
2014,08,22,13,35,23.50
2014,08,22,13,36,23.40
2014,08,22,13,37,23.30
2014,08,22,13,38,23.30
2014,08,22,13,39,23.30
2014,08,22,13,40,23.30
2014,08,22,13,41,23.40
2014,08,22,13,42,23.40
2014,08,22,13,43,23.40
2014,08,22,13,44,23.40
2014,08,22,13,45,23.50
2014,08,22,13,46,23.50
2014,08,22,13,47,23.60
2014,08,22,13,48,23.60
2014,08,22,13,49,23.60
2014,08,22,13,50,23.60
2014,08,22,13,51,23.60
2014,08,22,13,52,23.60
2014,08,22,13,53,23.70
2014,08,22,13,54,23.70
2014,08,22,13,55,23.70
2014,08,22,13,56,23.80
2014,08,22,13,57,23.80
2014,08,22,13,58,23.80
2014,08,22,13,59,23.90
2014,08,22,14,00,23.90
2014,08,22,14,01,23.90
2014,08,22,14,02,24.00
2014,08,22,14,03,24.00
2014,08,22,14,04,24.10
2014,08,22,14,05,24.10
2014,08,22,14,06,24.10
2014,08,22,14,07,24.20
2014,08,22,14,08,24.20
2014,08,22,14,09,24.30
2014,08,22,14,10,24.30
2014,08,22,14,11,24.40
2014,08,22,14,12,24.50
2014,08,22,14,13,24.70
2014,08,22,14,14,24.80
2014,08,22,14,15,25.10
2014,08,22,14,16,25.30
2014,08,22,14,17,25.50
2014,08,22,14,18,25.80
2014,08,22,14,19,26.00
2014,08,22,14,20,26.20
2014,08,22,14,21,26.40
2014,08,22,14,22,26.60
2014,08,22,14,23,26.70
2014,08,22,14,24,26.80
2014,08,22,14,25,26.80
2014,08,22,14,26,26.90
2014,08,22,14,27,26.90
2014,08,22,14,28,26.90
2014,08,22,14,29,26.90
2014,08,22,14,30,27.00
2014,08,22,14,31,27.00
2014,08,22,14,32,27.00
2014,08,22,14,33,26.90
2014,08,22,14,34,27.00
2014,08,22,14,35,26.90
2014,08,22,14,36,26.90
2014,08,22,14,37,26.90
2014,08,22,14,38,27.00
2014,08,22,14,39,27.00
2014,08,22,14,40,27.00
2014,08,22,14,41,27.10
2014,08,22,14,42,27.10
2014,08,22,14,43,27.10
2014,08,22,14,44,27.20
2014,08,22,14,45,27.30
2014,08,22,14,46,27.20
2014,08,22,14,47,27.20
2014,08,22,14,48,27.20
2014,08,22,14,49,27.20
2014,08,22,14,50,27.20
2014,08,22,14,51,27.20
2014,08,22,14,52,27.20
2014,08,22,14,53,27.30
2014,08,22,14,54,27.30
2014,08,22,14,55,27.30
2014,08,22,14,56,27.30
2014,08,22,14,57,27.30
2014,08,22,14,58,27.30
2014,08,22,14,59,27.40
2014,08,22,15,00,27.40
2014,08,22,15,01,27.50
2014,08,22,15,02,27.50
2014,08,22,15,03,27.50
2014,08,22,15,04,27.50
2014,08,22,15,05,27.50
2014,08,22,15,06,27.40
2014,08,22,15,07,27.40
2014,08,22,15,08,27.30
2014,08,22,15,09,27.20
2014,08,22,15,10,27.10
2014,08,22,15,11,27.10
2014,08,22,15,12,27.00
2014,08,22,15,13,26.90
2014,08,22,15,14,26.90
2014,08,22,15,15,26.90
2014,08,22,15,16,26.90
2014,08,22,15,17,26.90
2014,08,22,15,18,27.00
2014,08,22,15,19,27.10
2014,08,22,15,20,27.10
2014,08,22,15,21,27.20
2014,08,22,15,22,27.30
2014,08,22,15,23,27.40
2014,08,22,15,24,27.50
2014,08,22,15,25,27.50
2014,08,22,15,26,27.60
2014,08,22,15,27,27.70
2014,08,22,15,28,27.80
2014,08,22,15,29,27.90
2014,08,22,15,30,27.90
2014,08,22,15,31,27.90
2014,08,22,15,32,27.90
2014,08,22,15,33,27.80
2014,08,22,15,34,27.80
2014,08,22,15,35,27.80
2014,08,22,15,36,27.80
2014,08,22,15,37,27.80
2014,08,22,15,38,27.90
2014,08,22,15,39,27.90
2014,08,22,15,40,27.90
2014,08,22,15,41,27.80
2014,08,22,15,42,27.80
2014,08,22,15,43,27.70
2014,08,22,15,44,27.70
2014,08,22,15,45,27.70
2014,08,22,15,46,27.70
2014,08,22,15,47,27.70
2014,08,22,15,48,27.70
2014,08,22,15,49,27.70
2014,08,22,15,50,27.70
2014,08,22,15,51,27.60
2014,08,22,15,52,27.40
2014,08,22,15,53,27.30
2014,08,22,15,54,27.10
2014,08,22,15,55,27.00
2014,08,22,15,56,26.90
2014,08,22,15,57,26.90
2014,08,22,15,58,26.90
2014,08,22,15,59,26.90
2014,08,22,16,00,26.90
2014,08,22,16,01,26.80
2014,08,22,16,02,26.60
2014,08,22,16,03,26.50
2014,08,22,16,04,26.40
2014,08,22,16,05,26.40
2014,08,22,16,06,26.40
2014,08,22,16,07,26.50
2014,08,22,16,08,26.50
2014,08,22,16,09,26.50
2014,08,22,16,10,26.60
2014,08,22,16,11,26.60
2014,08,22,16,12,26.60
2014,08,22,16,13,26.70
2014,08,22,16,14,26.80
2014,08,22,16,15,26.90
2014,08,22,16,16,26.90
2014,08,22,16,17,27.00
2014,08,22,16,18,27.00
2014,08,22,16,19,27.10
2014,08,22,16,20,27.20
2014,08,22,16,21,27.30
2014,08,22,16,22,27.30
2014,08,22,16,23,27.50
2014,08,22,16,24,27.60
2014,08,22,16,25,27.70
2014,08,22,16,26,27.80
2014,08,22,16,27,27.90
2014,08,22,16,28,28.00
2014,08,22,16,29,28.10
2014,08,22,16,30,28.20
2014,08,22,16,31,28.30
2014,08,22,16,32,28.30
2014,08,22,16,33,28.40
2014,08,22,16,34,28.40
2014,08,22,16,35,28.40
2014,08,22,16,36,28.40
2014,08,22,16,37,28.40
2014,08,22,16,38,28.40
2014,08,22,16,39,28.40
2014,08,22,16,40,28.40
2014,08,22,16,41,28.40
2014,08,22,16,42,28.40
2014,08,22,16,43,28.50
2014,08,22,16,44,28.60
2014,08,22,16,45,28.60
2014,08,22,16,46,28.60
2014,08,22,16,47,28.60
2014,08,22,16,48,28.60
2014,08,22,16,49,28.60
2014,08,22,16,50,28.60
2014,08,22,16,51,28.70
2014,08,22,16,52,28.80
2014,08,22,16,53,28.80
2014,08,22,16,54,28.80
2014,08,22,16,55,28.90
2014,08,22,16,56,28.90
2014,08,22,16,57,29.00
2014,08,22,16,58,29.00
2014,08,22,16,59,29.00
2014,08,22,17,00,29.00
2014,08,22,17,01,29.00
2014,08,22,17,02,29.00
2014,08,22,17,03,29.00
2014,08,22,17,04,29.00
2014,08,22,17,05,29.00
2014,08,22,17,06,29.00
2014,08,22,17,07,28.90
2014,08,22,17,08,29.00
2014,08,22,17,09,29.00
2014,08,22,17,10,29.00
2014,08,22,17,11,29.10
2014,08,22,17,12,29.10
2014,08,22,17,13,29.10
2014,08,22,17,14,29.10
2014,08,22,17,15,29.10
2014,08,22,17,16,29.10
2014,08,22,17,17,29.20
2014,08,22,17,18,29.20
2014,08,22,17,19,29.20